ITY125 EGPH-EICK

Flight info

Callsign ITY125
Flight time 0h 55m
Altitude 36000
Route GOSAM DCT TRN DCT NELBO DCT NIMAT DCT DUB DCT TISMO TISMO1R
Aircraft A319/M-SDE3FGHIRWY/LB1

Departure

Time 2026-04-22 10:11
Airport Edinburgh Airport (EGPH)

Arrival

Time 2026-04-22 11:07
Airport Cork International Airport (EICK)
Time Latitude Longitude Altitude Speed Heading
2026-04-22 10:05 55.94942 -3.36359 103 ft 0 kts 149°
2026-04-22 10:06 55.94948 -3.36366 103 ft 2 kts 149°
2026-04-22 10:06 55.94961 -3.36380 102 ft 2 kts 149°
2026-04-22 10:06 55.94973 -3.36393 102 ft 2 kts 149°
2026-04-22 10:07 55.94986 -3.36407 102 ft 2 kts 149°
2026-04-22 10:07 55.94994 -3.36416 102 ft 1 kts 148°
2026-04-22 10:07 55.95000 -3.36435 102 ft 2 kts 84°
2026-04-22 10:07 55.94999 -3.36448 102 ft 1 kts 53°
2026-04-22 10:08 55.94995 -3.36456 102 ft 0 kts 60°
2026-04-22 10:08 55.94999 -3.36443 102 ft 5 kts 59°
2026-04-22 10:09 55.95042 -3.36394 102 ft 9 kts
2026-04-22 10:09 55.95098 -3.36363 102 ft 6 kts 38°
2026-04-22 10:09 55.95133 -3.36314 102 ft 6 kts 21°
2026-04-22 10:09 55.95165 -3.36319 102 ft 3 kts 335°
2026-04-22 10:10 55.95196 -3.36349 102 ft 8 kts 331°
2026-04-22 10:10 55.95257 -3.36433 102 ft 14 kts 285°
2026-04-22 10:10 55.95166 -3.36756 99 ft 63 kts 239°
2026-04-22 10:10 55.94803 -3.37829 103 ft 135 kts 239°
2026-04-22 10:11 55.94263 -3.39420 439 ft 156 kts 239°
2026-04-22 10:11 55.93697 -3.41039 1119 ft 154 kts 237°
2026-04-22 10:11 55.93144 -3.42612 1770 ft 153 kts 237°
2026-04-22 10:11 55.92560 -3.44288 2268 ft 167 kts 237°
2026-04-22 10:12 55.91927 -3.46111 2765 ft 183 kts 237°
2026-04-22 10:12 55.91232 -3.48114 3253 ft 203 kts 237°
2026-04-22 10:12 55.90533 -3.50446 3848 ft 223 kts 248°
2026-04-22 10:12 55.90130 -3.53183 4436 ft 244 kts 259°
2026-04-22 10:13 55.89835 -3.56255 5203 ft 259 kts 261°
2026-04-22 10:13 55.89546 -3.59520 5922 ft 276 kts 260°
2026-04-22 10:13 55.89231 -3.62915 6698 ft 285 kts 259°
2026-04-22 10:13 55.89049 -3.66398 7614 ft 290 kts 269°
2026-04-22 10:14 55.88926 -3.69945 8510 ft 290 kts 253°
2026-04-22 10:14 55.88227 -3.73292 9412 ft 291 kts 243°
2026-04-22 10:14 55.87409 -3.76557 10259 ft 294 kts 243°
2026-04-22 10:14 55.86615 -3.79941 11087 ft 300 kts 245°
2026-04-22 10:15 55.85851 -3.83493 11567 ft 317 kts 247°
2026-04-22 10:15 55.85097 -3.87255 11966 ft 336 kts 248°
2026-04-22 10:15 55.84323 -3.91273 12322 ft 354 kts 249°
2026-04-22 10:15 55.83521 -3.95525 12807 ft 366 kts 249°
2026-04-22 10:16 55.82729 -3.99763 13537 ft 369 kts 249°
2026-04-22 10:16 55.81914 -4.04113 14303 ft 372 kts 249°
2026-04-22 10:16 55.81095 -4.08469 15004 ft 375 kts 249°
2026-04-22 10:16 55.80267 -4.12868 15667 ft 379 kts 249°
2026-04-22 10:17 55.79319 -4.17199 16283 ft 380 kts 240°
2026-04-22 10:17 55.77797 -4.21013 16937 ft 379 kts 225°
2026-04-22 10:17 55.75817 -4.24023 17578 ft 378 kts 213°
2026-04-22 10:17 55.73669 -4.26686 18183 ft 381 kts 212°
2026-04-22 10:18 55.71485 -4.29335 18761 ft 384 kts 212°
2026-04-22 10:18 55.69288 -4.32005 19342 ft 387 kts 213°
2026-04-22 10:18 55.67078 -4.34704 19900 ft 390 kts 213°
2026-04-22 10:18 55.64856 -4.37428 20462 ft 392 kts 214°
2026-04-22 10:19 55.62621 -4.40176 21005 ft 394 kts 214°
2026-04-22 10:19 55.60352 -4.42966 21528 ft 396 kts 214°
2026-04-22 10:19 55.58120 -4.45713 22040 ft 398 kts 214°
2026-04-22 10:19 55.55833 -4.48524 22535 ft 401 kts 215°
2026-04-22 10:20 55.53541 -4.51334 22998 ft 403 kts 215°
2026-04-22 10:20 55.51250 -4.54143 23479 ft 405 kts 216°
2026-04-22 10:20 55.48936 -4.56970 23922 ft 407 kts 216°
2026-04-22 10:20 55.46613 -4.59805 24355 ft 409 kts 216°
2026-04-22 10:21 55.44280 -4.62655 24782 ft 412 kts 217°
2026-04-22 10:21 55.41942 -4.65510 25215 ft 414 kts 216°
2026-04-22 10:21 55.39561 -4.68418 25613 ft 416 kts 216°
2026-04-22 10:21 55.37204 -4.71290 25981 ft 419 kts 217°
2026-04-22 10:22 55.34781 -4.74229 26355 ft 422 kts 216°
2026-04-22 10:22 55.32282 -4.76938 26730 ft 426 kts 212°
2026-04-22 10:22 55.29667 -4.79286 27066 ft 430 kts 208°
2026-04-22 10:22 55.26895 -4.81293 27404 ft 435 kts 204°
2026-04-22 10:23 55.24057 -4.83132 27737 ft 438 kts 204°
2026-04-22 10:23 55.21197 -4.84961 28065 ft 440 kts 204°
2026-04-22 10:23 55.18288 -4.86815 28388 ft 443 kts 204°
2026-04-22 10:23 55.15434 -4.88638 28697 ft 445 kts 204°
2026-04-22 10:24 55.12489 -4.90514 29012 ft 447 kts 204°
2026-04-22 10:24 55.09614 -4.92342 29436 ft 446 kts 204°
2026-04-22 10:24 55.06715 -4.94185 29888 ft 444 kts 204°
2026-04-22 10:24 55.03821 -4.96021 30333 ft 443 kts 204°
2026-04-22 10:25 55.00954 -4.97838 30763 ft 441 kts 205°
2026-04-22 10:25 54.98076 -4.99664 31171 ft 440 kts 205°
2026-04-22 10:25 54.95202 -5.01484 31546 ft 439 kts 204°
2026-04-22 10:25 54.92332 -5.03300 31903 ft 439 kts 204°
2026-04-22 10:26 54.89496 -5.05089 32255 ft 438 kts 204°
2026-04-22 10:26 54.86646 -5.06874 32602 ft 438 kts 204°
2026-04-22 10:26 54.83787 -5.08660 32939 ft 437 kts 204°
2026-04-22 10:26 54.80949 -5.10436 33249 ft 437 kts 204°
2026-04-22 10:27 54.78068 -5.12235 33560 ft 437 kts 204°
2026-04-22 10:27 54.75217 -5.14017 33877 ft 437 kts 204°
2026-04-22 10:27 54.72409 -5.15771 34200 ft 436 kts 204°
2026-04-22 10:27 54.69551 -5.17555 34533 ft 435 kts 204°
2026-04-22 10:28 54.66696 -5.19331 34821 ft 435 kts 204°
2026-04-22 10:28 54.63876 -5.21084 34997 ft 436 kts 204°
2026-04-22 10:28 54.61015 -5.22863 35131 ft 438 kts 203°
2026-04-22 10:28 54.58158 -5.24636 35293 ft 439 kts 203°
2026-04-22 10:29 54.55295 -5.26407 35435 ft 440 kts 203°
2026-04-22 10:29 54.52428 -5.28179 35578 ft 440 kts 203°
2026-04-22 10:29 54.49585 -5.30042 35715 ft 440 kts 205°
2026-04-22 10:29 54.46815 -5.32152 35874 ft 440 kts 208°
2026-04-22 10:30 54.44070 -5.34486 35993 ft 440 kts 209°
2026-04-22 10:30 54.41317 -5.36819 36117 ft 441 kts 209°
2026-04-22 10:30 54.35818 -5.41454 36342 ft 443 kts 208°
2026-04-22 10:31 54.30281 -5.46107 36394 ft 450 kts 208°
2026-04-22 10:31 54.24672 -5.50810 36407 ft 454 kts 208°
2026-04-22 10:32 54.19033 -5.55520 36403 ft 453 kts 208°
2026-04-22 10:32 54.13388 -5.60225 36415 ft 453 kts 208°
2026-04-22 10:33 54.07732 -5.64924 36411 ft 454 kts 208°
2026-04-22 10:33 54.02060 -5.69644 36395 ft 454 kts 208°
2026-04-22 10:34 53.96525 -5.74670 36388 ft 453 kts 213°
2026-04-22 10:34 53.91359 -5.80590 36373 ft 451 kts 218°
2026-04-22 10:35 53.86277 -5.86807 36383 ft 450 kts 217°
2026-04-22 10:35 53.81234 -5.92926 36377 ft 450 kts 217°
2026-04-22 10:36 53.76142 -5.99112 36372 ft 449 kts 217°
2026-04-22 10:36 53.71122 -6.05201 36365 ft 449 kts 217°
2026-04-22 10:37 53.63543 -6.14366 36364 ft 448 kts 217°
2026-04-22 10:38 53.58489 -6.20452 36359 ft 448 kts 217°
2026-04-22 10:38 53.53430 -6.26524 36350 ft 447 kts 217°
2026-04-22 10:39 53.48435 -6.32675 36342 ft 447 kts 219°
2026-04-22 10:39 53.43568 -6.39012 36335 ft 446 kts 219°
2026-04-22 10:40 53.38656 -6.45365 36324 ft 446 kts 219°
2026-04-22 10:40 53.33772 -6.51666 36325 ft 445 kts 219°
2026-04-22 10:41 53.28904 -6.57932 36208 ft 441 kts 218°
2026-04-22 10:41 53.26470 -6.61056 36006 ft 435 kts 218°
2026-04-22 10:41 53.24105 -6.64088 35806 ft 434 kts 218°
2026-04-22 10:41 53.21701 -6.67172 35600 ft 433 kts 218°
2026-04-22 10:42 53.19349 -6.70194 35393 ft 433 kts 218°
2026-04-22 10:42 53.16971 -6.73243 35188 ft 434 kts 218°
2026-04-22 10:42 53.14581 -6.76301 34947 ft 434 kts 218°
2026-04-22 10:42 53.12171 -6.79377 34566 ft 435 kts 218°
2026-04-22 10:43 53.09799 -6.82398 34034 ft 436 kts 217°
2026-04-22 10:43 53.07380 -6.85473 33378 ft 438 kts 217°
2026-04-22 10:43 53.04979 -6.88518 32680 ft 438 kts 217°
2026-04-22 10:43 53.02556 -6.91584 31936 ft 438 kts 217°
2026-04-22 10:44 53.00162 -6.94610 31186 ft 438 kts 217°
2026-04-22 10:44 52.97739 -6.97667 30399 ft 437 kts 217°
2026-04-22 10:44 52.95334 -7.00701 29615 ft 437 kts 217°
2026-04-22 10:44 52.92944 -7.03712 28836 ft 436 kts 217°
2026-04-22 10:45 52.90554 -7.06716 28039 ft 436 kts 217°
2026-04-22 10:45 52.88111 -7.09776 27218 ft 440 kts 217°
2026-04-22 10:45 52.85659 -7.12832 26365 ft 445 kts 216°
2026-04-22 10:45 52.83220 -7.15869 25473 ft 443 kts 216°
2026-04-22 10:46 52.80772 -7.18919 24678 ft 440 kts 216°
2026-04-22 10:46 52.78356 -7.21931 24153 ft 439 kts 216°
2026-04-22 10:46 52.75919 -7.24963 23593 ft 435 kts 216°
2026-04-22 10:46 52.73528 -7.27937 23032 ft 431 kts 216°
2026-04-22 10:47 52.71164 -7.30873 22450 ft 426 kts 216°
2026-04-22 10:47 52.68835 -7.33764 21854 ft 422 kts 215°
2026-04-22 10:47 52.66491 -7.36668 21250 ft 418 kts 215°
2026-04-22 10:47 52.64193 -7.39511 20653 ft 413 kts 215°
2026-04-22 10:48 52.61937 -7.42300 20066 ft 408 kts 215°
2026-04-22 10:48 52.59683 -7.45082 19467 ft 405 kts 214°
2026-04-22 10:48 52.57448 -7.47838 18872 ft 401 kts 214°
2026-04-22 10:48 52.55226 -7.50572 18274 ft 398 kts 214°
2026-04-22 10:49 52.53047 -7.53251 17694 ft 395 kts 214°
2026-04-22 10:49 52.50858 -7.55937 17105 ft 393 kts 214°
2026-04-22 10:49 52.48669 -7.58620 16518 ft 390 kts 213°
2026-04-22 10:49 52.46526 -7.61243 15938 ft 388 kts 213°
2026-04-22 10:50 52.44376 -7.63873 15351 ft 387 kts 213°
2026-04-22 10:50 52.42219 -7.66511 14764 ft 385 kts 212°
2026-04-22 10:50 52.40095 -7.69116 14183 ft 383 kts 212°
2026-04-22 10:50 52.37958 -7.71732 13601 ft 381 kts 212°
2026-04-22 10:51 52.35860 -7.74291 13025 ft 378 kts 212°
2026-04-22 10:51 52.33761 -7.76850 12447 ft 375 kts 211°
2026-04-22 10:51 52.31702 -7.79349 11885 ft 372 kts 211°
2026-04-22 10:51 52.29639 -7.81851 11313 ft 369 kts 211°
2026-04-22 10:52 52.27610 -7.84310 10940 ft 359 kts 211°
2026-04-22 10:52 52.25652 -7.86684 10764 ft 344 kts 210°
2026-04-22 10:52 52.23776 -7.88954 10601 ft 329 kts 210°
2026-04-22 10:52 52.21970 -7.91135 10454 ft 315 kts 209°
2026-04-22 10:53 52.20251 -7.93204 10338 ft 301 kts 209°
2026-04-22 10:53 52.18604 -7.95186 10242 ft 287 kts 208°
2026-04-22 10:53 52.17047 -7.97059 10166 ft 278 kts 208°
2026-04-22 10:53 52.15465 -7.98941 10171 ft 284 kts 208°
2026-04-22 10:54 52.13951 -8.01034 10157 ft 294 kts 224°
2026-04-22 10:54 52.13001 -8.04056 10161 ft 309 kts 249°
2026-04-22 10:54 52.12530 -8.07475 10167 ft 312 kts 253°
2026-04-22 10:54 52.12112 -8.10928 10169 ft 313 kts 253°
2026-04-22 10:55 52.11685 -8.14397 10164 ft 312 kts 252°
2026-04-22 10:55 52.11244 -8.17836 10158 ft 313 kts 252°
2026-04-22 10:55 52.10782 -8.21327 10159 ft 313 kts 252°
2026-04-22 10:55 52.10320 -8.24742 10161 ft 313 kts 251°
2026-04-22 10:56 52.09846 -8.28209 10169 ft 314 kts 251°
2026-04-22 10:56 52.09370 -8.31668 10172 ft 313 kts 251°
2026-04-22 10:56 52.08895 -8.35117 10169 ft 313 kts 251°
2026-04-22 10:56 52.08433 -8.38503 10156 ft 300 kts 251°
2026-04-22 10:57 52.07998 -8.41699 10159 ft 284 kts 250°
2026-04-22 10:57 52.07462 -8.44720 10162 ft 275 kts 244°
2026-04-22 10:57 52.06818 -8.47610 10155 ft 274 kts 242°
2026-04-22 10:57 52.06146 -8.50499 10157 ft 274 kts 242°
2026-04-22 10:58 52.05470 -8.53413 10159 ft 274 kts 242°
2026-04-22 10:58 52.04812 -8.56284 10157 ft 274 kts 242°
2026-04-22 10:58 52.03974 -8.58971 10133 ft 258 kts 218°
2026-04-22 10:58 52.02553 -8.60391 10099 ft 226 kts 181°
2026-04-22 10:59 52.01110 -8.60088 9762 ft 207 kts 148°
2026-04-22 10:59 51.99883 -8.58927 9394 ft 208 kts 147°
2026-04-22 10:59 51.98601 -8.57860 9160 ft 205 kts 151°
2026-04-22 10:59 51.97297 -8.56941 8776 ft 208 kts 153°
2026-04-22 11:00 51.95895 -8.56231 8314 ft 219 kts 169°
2026-04-22 11:00 51.94375 -8.56777 8138 ft 231 kts 201°
2026-04-22 11:00 51.93222 -8.58623 7935 ft 247 kts 232°
2026-04-22 11:00 51.92723 -8.61384 7350 ft 269 kts 264°
2026-04-22 11:01 51.93120 -8.64342 6749 ft 279 kts 298°
2026-04-22 11:01 51.94359 -8.66709 6178 ft 274 kts 330°
2026-04-22 11:01 51.96069 -8.67687 5609 ft 252 kts 11°
2026-04-22 11:01 51.97620 -8.66967 5070 ft 223 kts 45°
2026-04-22 11:02 51.98607 -8.65291 4508 ft 201 kts 73°
2026-04-22 11:02 51.98949 -8.63217 3960 ft 185 kts 96°
2026-04-22 11:02 51.98709 -8.61253 3419 ft 179 kts 115°
2026-04-22 11:02 51.98132 -8.59522 3055 ft 169 kts 117°
2026-04-22 11:03 51.97594 -8.57962 2975 ft 148 kts 117°
2026-04-22 11:03 51.97095 -8.56530 2982 ft 144 kts 119°
2026-04-22 11:03 51.96329 -8.55487 2832 ft 155 kts 154°
2026-04-22 11:03 51.95236 -8.55160 2623 ft 161 kts 158°
2026-04-22 11:04 51.94143 -8.54814 2388 ft 160 kts 154°
2026-04-22 11:04 51.93079 -8.54355 2168 ft 159 kts 151°
2026-04-22 11:04 51.92070 -8.53844 2036 ft 142 kts 147°
2026-04-22 11:04 51.91201 -8.53346 1814 ft 125 kts 144°
2026-04-22 11:05 51.90409 -8.52868 1631 ft 121 kts 143°
2026-04-22 11:05 51.89618 -8.52385 1459 ft 122 kts 145°
2026-04-22 11:05 51.88822 -8.51917 1302 ft 121 kts 146°
2026-04-22 11:05 51.88036 -8.51452 1140 ft 121 kts 146°
2026-04-22 11:06 51.87240 -8.50980 983 ft 121 kts 146°
2026-04-22 11:06 51.86458 -8.50502 838 ft 121 kts 146°
2026-04-22 11:06 51.85664 -8.50032 646 ft 121 kts 147°
2026-04-22 11:06 51.84899 -8.49574 497 ft 115 kts 147°
2026-04-22 11:07 51.84346 -8.49236 489 ft 23 kts 159°
2026-04-22 11:07 51.84335 -8.49069 491 ft 16 kts 57°
2026-04-22 11:07 51.84413 -8.48999 495 ft 11 kts 354°
2026-04-22 11:07 51.84436 -8.49002 496 ft 0 kts 357°